Regional Weather Roundup
Issued by NWS

Home | Current Version | Previous Version | Graphics & Text | Print | Product List | Glossary On
Versions: 1 2 3 4 5 6 7 8 9 10 11 12 13 14 15 16 17 18 19 20 21 22 23 24 25 26 27 28 29 30 31 32 33 34 35 36 37 38 39 40 41 42 43 44 45 46 47 48 49 50
000
ASUS43 KMPX 291701
RWRMN
WEATHER ROUNDUP FOR MINNESOTA
NATIONAL WEATHER SERVICE TWIN CITIES/CHANHASSEN MN
1200 PM CDT FRI MAY 29 2015


NOTE: "FAIR" INDICATES FEW OR NO CLOUDS BELOW 12,000 FEET WITH NO
SIGNIFICANT WEATHER AND/OR OBSTRUCTIONS TO VISIBILITY. N/A MEANS
CURRENT SKY AND/OR WEATHER CONDITIONS ARE NOT AVAILABLE.

MNZ060>063-068>070-291800-
   Twin Cities Metro

CITY           SKY/WX    TMP DP  RH WIND       PRES   REMARKS
TWIN CITIES    CLOUDY    71  63  75 SW8       29.90R
ST PAUL        CLOUDY    70  64  81 SW7       29.90R
CRYSTAL        CLOUDY    69  64  84 SW8       29.88S
BLAINE         CLOUDY    70  66  88 S7        29.88S
LAKEVILLE      CLOUDY    68  64  88 W5        29.91S
EDEN PRAIRIE   CLOUDY    69  63  81 SW9       29.89R
SOUTH ST PAUL  CLOUDY    70  65  82 SW8       29.90R
LAKE ELMO      PTSUNNY   70  64  83 W9        29.90S
$$
MNZ001>005-007-008-013>017-022>024-027-028-291800-
   Northwest Minnesota

CITY           SKY/WX    TMP DP  RH WIND       PRES   REMARKS
BEMIDJI        CLOUDY    47  44  90 N16       30.05R
HALLOCK        CLOUDY    46  37  71 N21G26    30.19R
ROSEAU         CLOUDY    46  39  76 N17G25    30.12R
WARROAD        PTSUNNY   48  41  76 N13G28    30.11R
THIEF RVR FALL CLOUDY    46  37  71 N20       30.14R
CROOKSTON      CLOUDY    45  37  76 N25       30.16R
FOSSTON        CLOUDY    46  43  87 N21       30.11R
DETROIT LAKES  CLOUDY    50  45  81 N22G28    30.07R
MOORHEAD       CLOUDY    45  41  87 N28G36    30.12R
PARK RAPIDS    CLOUDY    52  47  83 N14       30.02R
MAHNOMEN       CLOUDY    46  43  87 N18G26    30.08R
$$
MNZ006-009>011-018-025>026-291800-
   North Central Minnesota

CITY           SKY/WX    TMP DP  RH WIND       PRES   REMARKS
BAUDETTE       CLOUDY    49  41  74 NW20G26   30.07R
FLAG ISLAND    CLOUDY    46  39  76 NW29      30.08S
INTL FALLS     CLOUDY    50  45  83 NW16      30.01R
WASKISH        CLOUDY    48  45  87 NW10G17   30.06S
BIG FORK       CLOUDY    50  48  93 N9        30.01R
LONGVILLE      CLOUDY    52  50  93 N10G18    30.00R
GRAND RAPIDS   CLOUDY    54  50  87 NW16      29.98R
CRANE LAKE     CLOUDY    54  52  94 NW8G18    29.97R FOG
ORR            CLOUDY    54  50  87 NW12G18   29.94R
COOK           CLOUDY    55  54  94 NW8       29.95R
WALKER         CLOUDY    47  46  95 N12G21    30.02R
$$
MNZ012-019>021-037-291800-
   Northeast Minnesota

CITY           SKY/WX    TMP DP  RH WIND       PRES   REMARKS
DULUTH         CLOUDY    66  57  72 NW13      29.90R
HIBBING        LGT RAIN  58  56  93 N13       29.94R
EVELETH        LGT RAIN  57  54  88 NW9       29.95R
DULUTH HARBOR  CLOUDY    52  46  82 CALM      29.89S
TWO HARBORS    CLOUDY    70  61  73 NW7       29.87R
SILVER BAY     CLOUDY    70  57  64 W7        29.86R
GRAND MARAIS     N/A     42  39  89 SW7       29.85F
G MARAIS ARPRT PTSUNNY   63  54  72 W5        29.87R
$$
MNZ029>031-032-039>041-046>048-054>057-064-291800-
   West Central Minnesota

CITY           SKY/WX    TMP DP  RH WIND       PRES   REMARKS
FERGUS FALLS   CLOUDY    52  50  93 N18G24    30.05R
WHEATON        DRIZZLE   45  45 100 NW25G36   30.07R
MORRIS         CLOUDY    55  54  94 N25G31    29.98R
ALEXANDRIA     LGT RAIN  58  56  93 N15G22    29.98R
ELBOW LAKE     LGT RAIN  51  50  98 N18G25    30.01S
WADENA         CLOUDY    52  50  93 N16       30.00R
GLENWOOD       DRIZZLE   59  57  94 N15G23    29.96R
APPLETON       LGT RAIN  54  52  94 N22G33    29.98R
BENSON         LGT RAIN  57  54  88 N15G21    29.96R
ORTONVILLE     CLOUDY    48  46  93 N21G29    30.02R
MADISON        LGT RAIN  52  50  93 N20G30    30.00R
WILLMAR        HVY RAIN  64  63  94 N10       29.95R
$$
MNZ033>034-036-042>043-049>051-058-059-291800-
   Central Minnesota

CITY           SKY/WX    TMP DP  RH WIND       PRES   REMARKS
ST CLOUD       LGT RAIN  65  60  84 N8        29.91R
SAUK CENTRE    RAIN      60  58  92 N12G23    29.94S
PAYNESVILLE    LGT RAIN  61  60  95 W8        29.93S
AITKIN         LGT RAIN  61  55  82 N8G18     29.94R
PINE RIVER     DRIZZLE   54  54 100 N14G22    30.02R
BRAINERD       LGT RAIN  59  56  89 N13       29.96R FOG
STAPLES        CLOUDY    55  54  94 N15       29.98R
LONG PRAIRIE   LGT RAIN  59  55  88 NW10G20   29.96R
LITTLE FALLS   DRIZZLE   63  57  82 N10G16    29.94R
LITCHFIELD     DRIZZLE   66  63  88 N8        29.93R
BUFFALO        LGT RAIN  65  61  85 NW3       29.91S
MAPLE LAKE     CLOUDY    68  61  78 NW12      29.91S
$$
MNZ037-044-045-052-053-291800-
   East Central Minnesota

CITY           SKY/WX    TMP DP  RH WIND       PRES   REMARKS
PRINCETON      DRIZZLE   70  61  73 N6        29.90S
MORA           CLOUDY    68  59  73 N8        29.91S
CAMBRIDGE      CLOUDY    70  59  68 NW3       29.88S
RUSH CITY      CLOUDY    66  63  90 N3        29.89F
MOOSE LAKE     CLOUDY    66  57  72 NW10      29.89S
HINCKLEY       PTSUNNY   68  61  77 N7        29.90S
CLOQUET        CLOUDY    64  55  72 NW14      29.91S
MCGREGOR       CLOUDY    61  57  88 NW9       29.94R
$$
MNZ071>073-080-081-089-090-097-098-291800-
   Southwest Minnesota

CITY           SKY/WX    TMP DP  RH WIND       PRES   REMARKS
MONTEVIDEO     LGT RAIN  55  55 100 N18G25    29.97R
GRANITE FALLS  RAIN      59  57  94 NW14      29.97R
CANBY          RAIN      51  49  95 N18       30.00R
MARSHALL       CLOUDY    55  48  76 N21G29    29.95R
REDWOOD FALLS  RAIN      64  62  93 N6        29.91R FOG
OLIVIA         LGT RAIN  61  57  88 N9        29.92R
PIPESTONE      CLOUDY    59  55  88 N21       29.94R
WINDOM         RAIN      64  63  94 CALM      29.92S
WORTHINGTON    CLOUDY    66  61  82 S5        29.91S
JACKSON        CLOUDY    68  64  88 SW5       29.92S
TRACY          LGT RAIN  62  61  97 N12       29.94R
SLAYTON        HVY RAIN  61  61 100 N15       29.93F
$$
MNZ065>067-074>077-082>085-091>093-291800-
   South Central Minnesota

CITY           SKY/WX    TMP DP  RH WIND       PRES   REMARKS
MANKATO        CLOUDY    66  63  88 SW8       29.92R
NEW ULM        CLOUDY    68  63  83 W8        29.91R
ST JAMES       CLOUDY    70  66  88 W7        29.92S
FAIRMONT       CLOUDY    68  61  77 SW6       29.90F
GLENCOE        LGT RAIN  68  65  91 W3        29.91R
FARIBAULT      LGT RAIN  68  63  83 SW8       29.93R
OWATONNA       LGT RAIN  68  63  83 SW6       29.93R
WASECA         CLOUDY    68  63  83 SW8       29.93S
ALBERT LEA     CLOUDY    72  64  78 S7        29.91S
$$
MNZ078>079-086>088-094>096-291800-
   Southeast Minnesota

CITY           SKY/WX    TMP DP  RH WIND       PRES   REMARKS
ROCHESTER      CLOUDY    72  63  73 S16       29.92S
RED WING         N/A     72  64  78 SW3       29.89S
STANTON        CLOUDY    70  63  79 W5        29.91R
DODGE CENTER   RAIN      68  64  88 S10G16    29.92S
WINONA         CLOUDY    73  64  73 CALM      29.91F
AUSTIN         CLOUDY    72  64  78 S10       29.92S
PRESTON        CLOUDY    71  63  75 S10       29.94S
$$
ABBREVIATIONS USED IN REMARKS
   TC - TEMPERATURES IN CELSIUS
  WCI - WIND CHILL INDEX
   HX - HEAT INDEX
  VSB - VISIBILITY
$$


USA.gov is the U.S. government's official web portal to all federal, state and local government web resources and services.